Patrick Air Force Base, FL

6:59 PM EDT on August 31, 2016 (GMT -0400)
Patrick Air Force Base

Weather History for KCOF - January, 2013

Change the Weather History Date:

Tuesday, January 22, 2013

  Actual Average Record
Temperature  
Mean Temperature 63 °F -  
Max Temperature 68 °F 67 °F 84 °F (2007)
Min Temperature 57 °F 52 °F 39 °F (2009)
Degree Days  
Heating Degree Days 2    
Growing Degree Days 13 (Base 50)    
Moisture  
Dew Point 48 °F    
Average Humidity 60    
Maximum Humidity 77    
Minimum Humidity 44    
Precipitation  
Precipitation 0.00 in - - ()
Sea Level Pressure  
Sea Level Pressure 30.18 in    
Wind  
Wind Speed 14 mph (NNW)    
Max Wind Speed 21 mph    
Max Gust Speed 29 mph    
Visibility 10 miles    
Events      
Averages and records for this station are not official NWS values.
T = Trace of Precipitation, MM = Missing Value Source: NWS Daily Summary

Daily Weather History Graph

Daily Weather History Graph

Search for Another Location

Airport or City:

Trip Planner

Search our weather history database for the weather conditions in past years. The results will help you decide how hot, cold, wet, or windy it might be!

Date:

Astronomy

Jan. 22, 2013 Rise Set
Actual Time 7:13 AM EST 5:54 PM EST
Civil Twilight 6:48 AM EST 6:19 PM EST
Nautical Twilight 6:20 AM EST 6:48 PM EST
Astronomical Twilight 5:52 AM EST 7:16 PM EST
Moon 2:19 PM EST (1/22) 3:31 AM EST (1/22)
Length of Visible Light 11h 30m
Length of Day
10h 40m
Waxing Gibbous, 82% of the Moon is Illuminated
Jan 22
Waxing Gibbous
Jan 26
Full
Feb 3
Last Quarter
Feb 10
New
Feb 17
First Quarter

Hourly Weather History & Observations

Time (EST) Temp. Dew Point Humidity Pressure Visibility Wind Dir Wind Speed Gust Speed Precip Events Conditions
12:55 AM 64.9 °F 57.7 °F 77% 30.08 in 10.0 mi North 11.5 mph - N/A   Partly Cloudy
1:55 AM 64.4 °F 55.2 °F 72% 30.07 in 10.0 mi North 13.8 mph 19.6 mph N/A   Mostly Cloudy
2:55 AM 64.0 °F 54.1 °F 70% 30.07 in 10.0 mi North 18.4 mph 21.9 mph N/A   Mostly Cloudy
3:55 AM 63.3 °F 52.0 °F 66% 30.06 in 10.0 mi North 15.0 mph - N/A   Clear
4:55 AM 63.0 °F 50.4 °F 63% 30.06 in 10.0 mi North 15.0 mph - N/A   Clear
5:55 AM 62.2 °F 50.9 °F 66% 30.08 in 10.0 mi NNW 10.4 mph - N/A   Clear
6:55 AM 61.9 °F 51.8 °F 69% 30.11 in 10.0 mi NNW 9.2 mph - N/A   Clear
7:55 AM 61.0 °F 52.2 °F 73% 30.15 in 10.0 mi NW 11.5 mph - N/A   Clear
8:55 AM 61.7 °F 52.3 °F 71% 30.16 in 10.0 mi NW 15.0 mph - N/A   Clear
9:55 AM 64.4 °F 52.9 °F 66% 30.19 in 10.0 mi NNW 15.0 mph 23.0 mph N/A   Clear
10:55 AM 66.6 °F 48.7 °F 53% 30.20 in 10.0 mi North 17.3 mph 28.8 mph N/A   Clear
11:55 AM 68.7 °F 46.0 °F 44% 30.21 in 10.0 mi North 20.7 mph 27.6 mph N/A   Clear
12:55 PM 68.2 °F 46.8 °F 46% 30.20 in 10.0 mi North 20.7 mph 25.3 mph N/A   Clear
1:55 PM 66.9 °F 46.8 °F 48% 30.19 in 10.0 mi North 18.4 mph 26.5 mph N/A   Clear
2:55 PM 64.0 °F 46.8 °F 53% 30.19 in 10.0 mi North 16.1 mph 23.0 mph N/A   Clear
3:55 PM 62.4 °F 46.2 °F 55% 30.21 in 10.0 mi North 16.1 mph - N/A   Clear
4:55 PM 61.3 °F 44.6 °F 54% 30.23 in 10.0 mi North 17.3 mph 24.2 mph N/A   Clear
5:55 PM 60.3 °F 44.2 °F 55% 30.24 in 10.0 mi North 11.5 mph - N/A   Clear
6:55 PM 59.5 °F 44.2 °F 57% 30.25 in 10.0 mi North 12.7 mph - N/A   Clear
7:55 PM 58.8 °F 44.6 °F 59% 30.26 in 10.0 mi North 10.4 mph - N/A   Clear
8:55 PM 58.6 °F 45.0 °F 60% 30.27 in 10.0 mi North 11.5 mph - N/A   Clear
9:55 PM 59.2 °F 42.8 °F 55% 30.27 in 10.0 mi North 11.5 mph - N/A   Clear
10:55 PM 58.3 °F 43.2 °F 57% 30.28 in 10.0 mi NNW 9.2 mph - N/A   Clear
11:55 PM 57.6 °F 43.7 °F 60% 30.28 in 10.0 mi NNW 8.1 mph - N/A   Clear